Overview Statistics Trail Chart Weather Telemetry Raw packets
 

This is the latest recevied weather packets stored in our database for station/object HS3UAA-1. If no packets are shown the sender has not sent any weather packets the latest 10 day(s).

<< 11 12 13 14 15 16 17 >>
Time Temp. Humidity Pressure Rain* Wind** Luminosity Snow
1788571926 28.33° C 45% 998 hPa - - 0 W/m² -
1788571604 28.89° C 44% 998 hPa - - 0 W/m² -
1788571282 28.33° C 44% 998 hPa - - 0 W/m² -
1788570960 28.33° C 44% 998 hPa - - 0 W/m² -
1788570638 29.44° C 45% 998 hPa - - 0 W/m² -
1788570316 28.33° C 43% 998 hPa - - 0 W/m² -
1788569994 28.89° C 43% 998 hPa - - 0 W/m² -
1788569672 29.44° C 46% 998 hPa - - 0 W/m² -
1788569350 28.89° C 43% 997 hPa - - 0 W/m² -
1788569028 29.44° C 43% 997 hPa - - 0 W/m² -
1788568566 29.44° C 42% 997 hPa - - 0 W/m² -
1788568244 30° C 41% 997 hPa - - 0 W/m² -
1788567922 30° C 43% 997 hPa - - 0 W/m² -
1788567600 30.56° C 42% 997 hPa - - 0 W/m² -
1788567278 31.11° C 41% 997 hPa - - 0 W/m² -
1788566956 32.22° C 44% 997 hPa - - 0 W/m² -
1788566633 33.33° C 48% 997 hPa - - 0 W/m² -
1788566311 33.33° C 50% 997 hPa - - 0 W/m² -
1788565989 33.89° C 48% 997 hPa - - 0 W/m² -
1788565675 35.56° C 45% 996 hPa - - 0 W/m² -
1788565345 35° C 46% 996 hPa - - 0 W/m² -
1788565023 35° C 46% 996 hPa - - 0 W/m² -
1788564701 35° C 45% 996 hPa - - 0 W/m² -
1788564379 34.44° C 47% 996 hPa - - 0 W/m² -
1788564057 33.89° C 47% 996 hPa - - 0 W/m² -

* Rain since midnight (hover to see other rain measurements)
** Current wind speed in m/s (hover to see current wind gust speed)